Tracking 31027 objects as of 19-Jul-2025
HD Live streaming from Space Station
objects crossing your sky now

IRIDIUM 33 DEB

Track IRIDIUM 33 DEB now!
10-day predictions


NORAD ID: 38241
Int'l Code: 1997-051ZR
Perigee: 718.7 km
Apogee: 723.1 km
Inclination: 86.3 °
Period: 99.1 minutes
Semi major axis: 7091 km
RCS: 0.0216 m2 (small)
Launch date: September 14, 1997
Source: United States (US)
Launch site: TYURATAM MISSILE AND SPACE COMPLEX (TTMTR)

Note: This is SATELLITE DEBRIS
Your satellite tracking list
SL-14 DEB
Track 1 satellite(s)




NASA's NSSDC Master Catalog

Two Line Element Set (TLE):
1 38241U 97051ZR  25198.90306858  .00001771  00000-0  41886-3 0  9990
2 38241  86.3197  55.7267 0003109 154.4595 205.6766 14.53635158580525
Source of the keplerian elements: AFSPC